Погода в Усть-Таловке

Казахстан     50°32′42″N   81°50′58″E
темп.,
°C
ветер,
м/с
пор.,
м/с
влажн.,
%
обл.,
%
осадки,
мм/ч
давл.,
гПа
погр.,
м
2 марта, вт
вт200:00−3ю71596100 7.2 1018689
03:00−2ююз61297100 2.9 1018603
06:00−2ююз61097100 4.8 1019542
09:00−3ююз5997100 0.8 1020484
12:00−2ю6997100 1.8 1019507
15:00−1ю4897100 1.5 1017451
18:00−2ю4998100 2.9 1016467
21:00−2ююв41198100 2.5 1016572
3 марта, ср
ср300:00−2юз2598100 4.9 1016239
03:00−8сз2394100 0.4 101828
06:00−9юз1196100 0.8 102021
09:00−8юз3595100 0.6 1022272
12:00−9зюз5792100 0.9 1023471
15:00−9юз4689100 0.1 1024654
18:00−13ю129699 0.2 102621
21:00−15юв229540 0.0 102820
4 марта, чт
чт400:00−15юв339020 0.0 102924
03:00−16ююв33902 0.0 102930
06:00−16юв338328 0.0 102932
09:00−14ююв498377 0.0 1029221
12:00−9ююв5118088 0.0 1028489
15:00−6ююв5118269 0.0 1026640
18:00−8ююв478766 0.0 1026104
21:00−10ююв478025 0.0 1026117
5 марта, пт
пт500:00−11ююв497330 0.0 1025161
03:00−11ююв4117291 0.0 1021179
06:00−9ююв378095 0.1 1020194
09:00−7ююв2594100 1.3 1019233
12:00−4ююз51295100 6.7 1021766
15:00−2зюз4893100 1.8 1025638
18:00−4зюз5889100 2.0 1030437
21:00−9ю338845 0.0 103223
6 марта, сб
сб600:00−10ююв348924 0.0 103358
03:00−11ююв478960 0.0 1031128
06:00−12ююв468750 0.0 1031103
09:00−10ююв411860 0.0 1030286
12:00−4ю612866 0.0 1028643
15:00−2ююз7138344 0.0 1025694
18:00−5ююз478630 0.0 1025139
21:00−9ю23852 0.0 102623